| time (UTC) | temp F | wind direction | speed MPH | gust MPH | rain 1hr in | rain 24hr in | rain mn in | humidity % | barometer mb |
| 20260506004314 | 57 | 200 | 28.0 | 35.0 | 0.00 | 0.00 | 0.00 | 87 | 1011.5 |
| 20260506003809 | 57 | 189 | 19.0 | 32.0 | 0.00 | 0.00 | 0.00 | 87 | 1011.2 |
| 20260506003306 | 57 | 177 | 24.0 | 33.0 | 0.00 | 0.00 | 0.00 | 87 | 1011.2 |
| 20260506002802 | 57 | 202 | 24.0 | 32.0 | 0.00 | 0.00 | 0.00 | 87 | 1011.1 |
| 20260506002259 | 57 | 207 | 28.0 | 35.0 | 0.00 | 0.00 | 0.00 | 87 | 1011.1 |
| 20260506001754 | 57 | 196 | 27.0 | 33.0 | 0.00 | 0.00 | 0.00 | 86 | 1011.2 |
| 20260506001252 | 58 | 210 | 29.0 | 35.0 | 0.00 | 0.00 | 0.00 | 85 | 1011.1 |
| 20260506000749 | 58 | 210 | 29.0 | 35.0 | 0.00 | 0.00 | 0.00 | 85 | 1011.1 |
| 20260506000247 | 58 | 200 | 29.0 | 35.0 | 0.00 | 0.00 | 0.00 | 85 | 1011.0 |
| 20260505235743 | 58 | 188 | 33.0 | 38.0 | 0.00 | 0.00 | 0.00 | 85 | 1010.9 |
| 20260505235241 | 58 | 219 | 32.0 | 35.0 | 0.00 | 0.00 | 0.00 | 85 | 1010.8 |
| 20260505234738 | 58 | 198 | 32.0 | 41.0 | 0.00 | 0.00 | 0.00 | 85 | 1010.3 |
| 20260505234235 | 58 | 188 | 28.0 | 38.0 | 0.00 | 0.00 | 0.00 | 85 | 1010.5 |
| 20260505233731 | 58 | 199 | 32.0 | 38.0 | 0.00 | 0.00 | 0.00 | 85 | 1010.2 |
| 20260505233230 | 58 | 188 | 30.0 | 34.0 | 0.00 | 0.00 | 0.00 | 85 | 1010.4 |
| 20260505232726 | 58 | 196 | 28.0 | 35.0 | 0.00 | 0.00 | 0.00 | 85 | 1010.1 |
| 20260505232224 | 58 | 195 | 29.0 | 36.0 | 0.00 | 0.00 | 0.00 | 85 | 1010.2 |
| 20260505231721 | 58 | 189 | 32.0 | 39.0 | 0.00 | 0.00 | 0.00 | 85 | 1010.1 |
| 20260505231220 | 58 | 207 | 30.0 | 38.0 | 0.00 | 0.00 | 0.00 | 85 | 1010.0 |
| 20260505230717 | 58 | 196 | 29.0 | 35.0 | 0.00 | 0.00 | 0.00 | 85 | 1010.0 |
| 20260505230214 | 58 | 205 | 31.0 | 35.0 | 0.00 | 0.00 | 0.00 | 85 | 1010.0 |
| 20260505225710 | 58 | 176 | 29.0 | 39.0 | 0.00 | 0.00 | 0.00 | 85 | 1010.1 |
| 20260505225207 | 58 | 196 | 29.0 | 36.0 | 0.00 | 0.00 | 0.00 | 85 | 1009.9 |
| 20260505224702 | 58 | 202 | 27.0 | 35.0 | 0.00 | 0.00 | 0.00 | 85 | 1010.0 |
| 20260505224201 | 58 | 210 | 29.0 | 40.0 | 0.00 | 0.00 | 0.00 | 85 | 1009.6 |
| 20260505223658 | 58 | 174 | 27.0 | 36.0 | 0.00 | 0.00 | 0.00 | 85 | 1009.8 |
| 20260505223153 | 58 | 188 | 21.0 | 34.0 | 0.00 | 0.00 | 0.00 | 85 | 1009.7 |
| 20260505222650 | 58 | 220 | 20.0 | 32.0 | 0.00 | 0.00 | 0.00 | 85 | 1009.8 |
| 20260505222146 | 58 | 192 | 25.0 | 32.0 | 0.00 | 0.00 | 0.00 | 85 | 1009.7 |
| 20260505221643 | 58 | 179 | 23.0 | 29.0 | 0.00 | 0.00 | 0.00 | 85 | 1009.7 |
| 20260505221140 | 58 | 243 | 16.0 | 25.0 | 0.00 | 0.00 | 0.00 | 84 | 1009.6 |
| 20260505220637 | 58 | 177 | 22.0 | 32.0 | 0.00 | 0.00 | 0.00 | 84 | 1009.7 |
| 20260505220135 | 58 | 176 | 17.0 | 26.0 | 0.00 | 0.00 | 0.00 | 84 | 1009.7 |
| 20260505215632 | 58 | 205 | 27.0 | 33.0 | 0.00 | 0.00 | 0.00 | 84 | 1009.5 |
| 20260505215130 | 58 | 191 | 21.0 | 27.0 | 0.00 | 0.00 | 0.00 | 84 | 1009.4 |
| 20260505214628 | 58 | 162 | 23.0 | 31.0 | 0.00 | 0.00 | 0.00 | 84 | 1009.6 |
| 20260505214125 | 58 | 184 | 22.0 | 29.0 | 0.00 | 0.00 | 0.00 | 84 | 1009.5 |
| 20260505213622 | 58 | 173 | 18.0 | 32.0 | 0.00 | 0.00 | 0.00 | 84 | 1009.7 |
| 20260505213119 | 58 | 200 | 22.0 | 35.0 | 0.00 | 0.00 | 0.00 | 83 | 1009.4 |
| 20260505212615 | 59 | 195 | 16.0 | 26.0 | 0.00 | 0.00 | 0.00 | 83 | 1009.3 |
| 20260505212113 | 59 | 221 | 23.0 | 29.0 | 0.00 | 0.00 | 0.00 | 84 | 1009.3 |
| 20260505211609 | 59 | 199 | 19.0 | 27.0 | 0.00 | 0.00 | 0.00 | 84 | 1009.2 |
| 20260505211107 | 58 | 197 | 16.0 | 29.0 | 0.00 | 0.00 | 0.00 | 84 | 1009.2 |
| 20260505210603 | 58 | 207 | 21.0 | 31.0 | 0.00 | 0.00 | 0.00 | 84 | 1009.2 |
| 20260505210100 | 58 | 228 | 21.0 | 32.0 | 0.00 | 0.00 | 0.00 | 84 | 1009.3 |
| 20260505205558 | 58 | 213 | 20.0 | 35.0 | 0.00 | 0.00 | 0.00 | 85 | 1009.5 |
| 20260505205055 | 58 | 156 | 21.0 | 33.0 | 0.00 | 0.00 | 0.00 | 85 | 1009.4 |
| 20260505204552 | 58 | 207 | 20.0 | 27.0 | 0.00 | 0.00 | 0.00 | 85 | 1009.2 |
| 20260505204050 | 58 | 190 | 19.0 | 33.0 | 0.00 | 0.00 | 0.00 | 85 | 1009.5 |
| 20260505203546 | 58 | 214 | 22.0 | 30.0 | 0.00 | 0.00 | 0.00 | 85 | 1009.4 |
| 20260505203043 | 58 | 202 | 18.0 | 23.0 | 0.00 | 0.00 | 0.00 | 85 | 1009.3 |
| 20260505202539 | 58 | 234 | 17.0 | 26.0 | 0.00 | 0.00 | 0.00 | 85 | 1009.2 |
| 20260505202035 | 58 | 199 | 18.0 | 27.0 | 0.00 | 0.00 | 0.00 | 85 | 1009.6 |
| 20260505201532 | 58 | 186 | 15.0 | 24.0 | 0.00 | 0.00 | 0.00 | 85 | 1009.4 |
| 20260505201030 | 58 | 162 | 17.0 | 23.0 | 0.00 | 0.00 | 0.00 | 85 | 1009.3 |
| 20260505200528 | 58 | 216 | 17.0 | 26.0 | 0.00 | 0.00 | 0.00 | 85 | 1009.7 |
| 20260505200025 | 58 | 163 | 20.0 | 26.0 | 0.00 | 0.00 | 0.00 | 85 | 1009.4 |
| 20260505195520 | 58 | 212 | 17.0 | 24.0 | 0.00 | 0.00 | 0.00 | 86 | 1009.5 |
| 20260505195018 | 58 | 213 | 15.0 | 22.0 | 0.00 | 0.00 | 0.00 | 86 | 1009.5 |
| 20260505194515 | 58 | 181 | 19.0 | 25.0 | 0.00 | 0.00 | 0.00 | 86 | 1009.9 |
| 20260505194010 | 58 | 180 | 19.0 | 24.0 | 0.00 | 0.00 | 0.00 | 86 | 1009.8 |
| 20260505193508 | 58 | 229 | 21.0 | 25.0 | 0.00 | 0.00 | 0.00 | 86 | 1009.8 |
| 20260505193005 | 58 | 209 | 19.0 | 23.0 | 0.00 | 0.00 | 0.00 | 86 | 1009.9 |
| 20260505192503 | 58 | 162 | 17.0 | 25.0 | 0.00 | 0.00 | 0.00 | 85 | 1009.9 |
| 20260505192001 | 58 | 202 | 15.0 | 21.0 | 0.00 | 0.00 | 0.00 | 85 | 1010.2 |
| 20260505191459 | 58 | 178 | 9.0 | 19.0 | 0.00 | 0.00 | 0.00 | 86 | 1010.3 |
| 20260505190956 | 58 | 184 | 16.0 | 19.0 | 0.00 | 0.00 | 0.00 | 86 | 1010.6 |
| 20260505190450 | 58 | 204 | 13.0 | 22.0 | 0.00 | 0.00 | 0.00 | 86 | 1010.4 |
| 20260505185946 | 58 | 183 | 17.0 | 25.0 | 0.00 | 0.00 | 0.00 | 86 | 1010.6 |
| 20260505185444 | 58 | 208 | 18.0 | 21.0 | 0.00 | 0.00 | 0.00 | 86 | 1010.5 |
| 20260505184940 | 58 | 184 | 14.0 | 26.0 | 0.00 | 0.00 | 0.00 | 86 | 1010.7 |
| 20260505184437 | 58 | 214 | 14.0 | 22.0 | 0.00 | 0.00 | 0.00 | 86 | 1010.8 |
| 20260505183933 | 58 | 206 | 17.0 | 24.0 | 0.00 | 0.00 | 0.00 | 86 | 1010.8 |
| 20260505183430 | 58 | 197 | 15.0 | 21.0 | 0.00 | 0.00 | 0.00 | 86 | 1010.8 |
| 20260505182927 | 58 | 211 | 17.0 | 23.0 | 0.00 | 0.00 | 0.00 | 86 | 1011.1 |
| 20260505182424 | 58 | 181 | 16.0 | 22.0 | 0.00 | 0.00 | 0.00 | 86 | 1010.9 |
| 20260505181920 | 58 | 177 | 15.0 | 22.0 | 0.00 | 0.00 | 0.00 | 86 | 1010.9 |
| 20260505181418 | 58 | 211 | 18.0 | 22.0 | 0.00 | 0.00 | 0.00 | 86 | 1011.0 |
| 20260505180914 | 58 | 176 | 14.0 | 19.0 | 0.00 | 0.00 | 0.00 | 86 | 1011.2 |
| 20260505180411 | 58 | 218 | 13.0 | 19.0 | 0.00 | 0.00 | 0.00 | 86 | 1011.1 |
| 20260505175908 | 58 | 180 | 16.0 | 21.0 | 0.00 | 0.00 | 0.00 | 87 | 1011.3 |
| 20260505175404 | 58 | 204 | 13.0 | 17.0 | 0.00 | 0.00 | 0.00 | 86 | 1011.2 |
| 20260505174900 | 58 | 210 | 10.0 | 17.0 | 0.00 | 0.00 | 0.00 | 87 | 1011.4 |
| 20260505174358 | 58 | 170 | 14.0 | 16.0 | 0.00 | 0.00 | 0.00 | 87 | 1011.4 |
| 20260505173854 | 58 | 193 | 12.0 | 16.0 | 0.00 | 0.00 | 0.00 | 87 | 1011.4 |
| 20260505173351 | 58 | 190 | 9.0 | 16.0 | 0.00 | 0.00 | 0.00 | 87 | 1011.4 |
| 20260505172848 | 58 | 179 | 13.0 | 18.0 | 0.00 | 0.00 | 0.00 | 87 | 1011.3 |
| 20260505172345 | 57 | 194 | 13.0 | 16.0 | 0.00 | 0.00 | 0.00 | 87 | 1011.4 |
| 20260505171845 | 57 | 191 | 15.0 | 18.0 | 0.00 | 0.00 | 0.00 | 87 | 1011.6 |
| 20260505171342 | 58 | 198 | 12.0 | 15.0 | 0.00 | 0.00 | 0.00 | 87 | 1011.5 |
| 20260505170838 | 58 | 181 | 11.0 | 17.0 | 0.00 | 0.00 | 0.00 | 87 | 1011.6 |
| 20260505170335 | 58 | 208 | 12.0 | 16.0 | 0.00 | 0.00 | 0.00 | 87 | 1011.5 |
| 20260505165831 | 57 | 178 | 9.0 | 15.0 | 0.00 | 0.00 | 0.00 | 87 | 1011.6 |
| 20260505165326 | 58 | 174 | 12.0 | 15.0 | 0.00 | 0.00 | 0.00 | 87 | 1011.5 |
| 20260505164822 | 57 | 188 | 8.0 | 16.0 | 0.00 | 0.00 | 0.00 | 88 | 1011.8 |
| 20260505164320 | 57 | 186 | 10.0 | 16.0 | 0.00 | 0.00 | 0.00 | 87 | 1011.9 |
| 20260505163818 | 57 | 180 | 8.0 | 13.0 | 0.00 | 0.00 | 0.00 | 88 | 1012.0 |
| 20260505163316 | 57 | 186 | 8.0 | 14.0 | 0.00 | 0.00 | 0.00 | 88 | 1011.8 |
| 20260505162814 | 57 | 212 | 10.0 | 13.0 | 0.00 | 0.00 | 0.00 | 88 | 1011.9 |
| 20260505162310 | 57 | 189 | 8.0 | 14.0 | 0.00 | 0.00 | 0.00 | 88 | 1011.9 |
| 20260505161807 | 57 | 195 | 9.0 | 13.0 | 0.00 | 0.00 | 0.00 | 88 | 1012.0 |
| 20260505161304 | 58 | 213 | 8.0 | 13.0 | 0.00 | 0.00 | 0.00 | 88 | 1012.3 |
| 20260505160802 | 57 | 205 | 7.0 | 10.0 | 0.00 | 0.00 | 0.00 | 88 | 1012.1 |
| 20260505160259 | 57 | 215 | 6.0 | 11.0 | 0.00 | 0.00 | 0.00 | 89 | 1012.4 |
| 20260505153238 | 57 | 202 | 7.0 | 9.0 | 0.00 | 0.00 | 0.00 | 90 | 1012.4 |
| 20260505152736 | 56 | 194 | 6.0 | 9.0 | 0.00 | 0.00 | 0.00 | 90 | 1012.5 |
| 20260505152232 | 56 | 202 | 6.0 | 8.0 | 0.00 | 0.00 | 0.00 | 90 | 1012.7 |
| 20260505151732 | 56 | 206 | 5.0 | 6.0 | 0.00 | 0.00 | 0.00 | 90 | 1012.7 |
| 20260505151230 | 56 | 205 | 5.0 | 7.0 | 0.00 | 0.00 | 0.00 | 91 | 1012.7 |
| 20260505150726 | 56 | 207 | 4.0 | 9.0 | 0.00 | 0.00 | 0.00 | 91 | 1012.6 |
| 20260505150223 | 56 | 195 | 5.0 | 8.0 | 0.00 | 0.00 | 0.00 | 91 | 1012.7 |
| 20260505140651 | 55 | 192 | 7.0 | 10.0 | 0.00 | 0.00 | 0.00 | 94 | 1012.7 |
| 20260505140148 | 54 | 202 | 8.0 | 11.0 | 0.00 | 0.00 | 0.00 | 94 | 1012.6 |
| 20260505130112 | 54 | 198 | 4.0 | 8.0 | 0.00 | 0.00 | 0.00 | 96 | 1012.8 |
| 20260505124601 | 54 | 189 | 7.0 | 8.0 | 0.00 | 0.00 | 0.00 | 96 | 1012.6 |
| 20260505124057 | 53 | 197 | 6.0 | 9.0 | 0.00 | 0.00 | 0.00 | 96 | 1012.4 |
| 20260505123554 | 53 | 200 | 7.0 | 10.0 | 0.00 | 0.00 | 0.00 | 96 | 1012.5 |
| 20260505123050 | 53 | 193 | 6.0 | 9.0 | 0.00 | 0.00 | 0.00 | 96 | 1012.6 |
| 20260505122547 | 53 | 196 | 9.0 | 11.0 | 0.00 | 0.00 | 0.00 | 96 | 1012.4 |
| 20260505122044 | 53 | 189 | 6.0 | 9.0 | 0.00 | 0.00 | 0.00 | 96 | 1012.5 |
| 20260505121541 | 53 | 170 | 7.0 | 9.0 | 0.00 | 0.00 | 0.00 | 96 | 1012.4 |
| 20260505121038 | 53 | 196 | 7.0 | 10.0 | 0.00 | 0.00 | 0.00 | 96 | 1012.5 |
| 20260505120534 | 53 | 183 | 6.0 | 8.0 | 0.00 | 0.00 | 0.00 | 96 | 1012.4 |
| 20260505120030 | 53 | 211 | 1.0 | 2.0 | 0.00 | 0.00 | 0.00 | 96 | 1012.6 |
| 20260505115524 | 53 | 210 | 2.0 | 6.0 | 0.00 | 0.00 | 0.00 | 96 | 1012.4 |
| 20260505115022 | 53 | 208 | 2.0 | 2.0 | 0.00 | 0.00 | 0.00 | 96 | 1012.6 |
| 20260505114519 | 53 | 212 | 1.0 | 4.0 | 0.00 | 0.00 | 0.00 | 96 | 1012.6 |
| 20260505114015 | 53 | 213 | 4.0 | 6.0 | 0.00 | 0.00 | 0.00 | 96 | 1012.5 |
| 20260505113512 | 53 | 210 | 2.0 | 4.0 | 0.00 | 0.00 | 0.00 | 96 | 1012.6 |
| 20260505113009 | 53 | 200 | 2.0 | 6.0 | 0.00 | 0.00 | 0.00 | 97 | 1012.6 |
| 20260505112505 | 53 | 202 | 3.0 | 4.0 | 0.00 | 0.00 | 0.00 | 96 | 1012.8 |
| 20260505112003 | 53 | 209 | 1.0 | 3.0 | 0.00 | 0.00 | 0.00 | 97 | 1012.6 |
| 20260505111502 | 53 | 208 | 3.0 | 4.0 | 0.00 | 0.00 | 0.00 | 96 | 1012.4 |
| 20260505110959 | 53 | 208 | 3.0 | 3.0 | 0.00 | 0.00 | 0.00 | 96 | 1012.5 |
| 20260505110455 | 53 | 208 | 2.0 | 3.0 | 0.00 | 0.00 | 0.00 | 97 | 1012.6 |
| 20260505101927 | 52 | 211 | 4.0 | 6.0 | 0.00 | 0.00 | 0.00 | 96 | 1011.7 |
| 20260505101421 | 52 | 215 | 4.0 | 8.0 | 0.00 | 0.00 | 0.00 | 96 | 1011.7 |
| 20260505100917 | 52 | 207 | 6.0 | 9.0 | 0.00 | 0.00 | 0.00 | 96 | 1011.8 |
| 20260505100414 | 52 | 210 | 7.0 | 9.0 | 0.00 | 0.00 | 0.00 | 96 | 1011.6 |
| 20260505095909 | 52 | 198 | 8.0 | 11.0 | 0.00 | 0.00 | 0.00 | 96 | 1011.7 |
| 20260505095407 | 52 | 214 | 10.0 | 11.0 | 0.00 | 0.00 | 0.00 | 96 | 1011.4 |
| 20260505094903 | 52 | 213 | 10.0 | 14.0 | 0.00 | 0.00 | 0.00 | 96 | 1011.6 |
| 20260505094400 | 53 | 207 | 12.0 | 14.0 | 0.00 | 0.00 | 0.00 | 96 | 1011.5 |
| 20260505093855 | 52 | 206 | 11.0 | 13.0 | 0.00 | 0.00 | 0.00 | 96 | 1011.3 |
| 20260505093353 | 52 | 211 | 9.0 | 10.0 | 0.00 | 0.00 | 0.00 | 96 | 1011.5 |
| 20260505092850 | 52 | 202 | 8.0 | 10.0 | 0.00 | 0.00 | 0.00 | 96 | 1011.2 |
| 20260505092348 | 52 | 219 | 6.0 | 9.0 | 0.00 | 0.00 | 0.00 | 96 | 1011.6 |
| 20260505091845 | 52 | 216 | 7.0 | 9.0 | 0.00 | 0.00 | 0.00 | 96 | 1011.3 |
| 20260505091343 | 52 | 209 | 8.0 | 9.0 | 0.00 | 0.00 | 0.00 | 96 | 1011.3 |
| 20260505090841 | 52 | 209 | 6.0 | 9.0 | 0.00 | 0.00 | 0.00 | 96 | 1011.4 |
| 20260505090339 | 52 | 201 | 8.0 | 10.0 | 0.00 | 0.00 | 0.00 | 96 | 1011.6 |
| 20260505085836 | 52 | 213 | 6.0 | 9.0 | 0.00 | 0.00 | 0.00 | 96 | 1011.3 |
| 20260505085334 | 52 | 211 | 9.0 | 11.0 | 0.00 | 0.00 | 0.00 | 96 | 1011.4 |
| 20260505084831 | 52 | 208 | 9.0 | 9.0 | 0.00 | 0.00 | 0.00 | 96 | 1011.4 |
| 20260505084329 | 52 | 205 | 8.0 | 9.0 | 0.00 | 0.00 | 0.00 | 96 | 1011.3 |
| 20260505083826 | 52 | 216 | 6.0 | 9.0 | 0.00 | 0.00 | 0.00 | 96 | 1011.2 |
| 20260505083324 | 52 | 227 | 6.0 | 8.0 | 0.00 | 0.00 | 0.00 | 95 | 1011.4 |
| 20260505082820 | 52 | 218 | 5.0 | 8.0 | 0.00 | 0.00 | 0.00 | 95 | 1011.4 |
| 20260505082317 | 52 | 216 | 7.0 | 10.0 | 0.00 | 0.00 | 0.00 | 95 | 1011.6 |
| 20260505081813 | 52 | 202 | 8.0 | 9.0 | 0.00 | 0.00 | 0.00 | 95 | 1011.7 |
| 20260505081310 | 52 | 211 | 6.0 | 8.0 | 0.00 | 0.00 | 0.00 | 95 | 1011.7 |
| 20260505080807 | 53 | 219 | 8.0 | 9.0 | 0.00 | 0.00 | 0.00 | 95 | 1011.6 |
| 20260505080303 | 53 | 217 | 9.0 | 11.0 | 0.00 | 0.00 | 0.00 | 95 | 1011.6 |
| 20260505075758 | 53 | 220 | 7.0 | 10.0 | 0.00 | 0.00 | 0.00 | 95 | 1011.5 |
| 20260505075255 | 53 | 213 | 7.0 | 9.0 | 0.00 | 0.00 | 0.00 | 95 | 1011.6 |
| 20260505074753 | 53 | 206 | 7.0 | 9.0 | 0.00 | 0.00 | 0.00 | 95 | 1011.5 |
| 20260505074250 | 53 | 211 | 6.0 | 9.0 | 0.00 | 0.00 | 0.00 | 95 | 1011.3 |
| 20260505073747 | 53 | 213 | 8.0 | 10.0 | 0.00 | 0.00 | 0.00 | 95 | 1011.4 |
| 20260505073245 | 53 | 209 | 9.0 | 11.0 | 0.00 | 0.00 | 0.00 | 95 | 1011.3 |
| 20260505072741 | 53 | 224 | 9.0 | 11.0 | 0.00 | 0.00 | 0.00 | 94 | 1011.3 |
| 20260505072237 | 53 | 209 | 8.0 | 11.0 | 0.00 | 0.00 | 0.00 | 94 | 1011.4 |
| 20260505071733 | 53 | 213 | 9.0 | 11.0 | 0.00 | 0.00 | 0.00 | 94 | 1011.3 |
| 20260505071230 | 53 | 226 | 10.0 | 13.0 | 0.00 | 0.00 | 0.00 | 94 | 1011.4 |
| 20260505070728 | 53 | 212 | 10.0 | 15.0 | 0.00 | 0.00 | 0.00 | 94 | 1011.3 |
| 20260505070224 | 53 | 216 | 12.0 | 15.0 | 0.00 | 0.00 | 0.00 | 94 | 1011.1 |
| 20260505065720 | 53 | 221 | 12.0 | 15.0 | 0.00 | 0.00 | 0.00 | 94 | 1011.3 |
| 20260505065217 | 53 | 201 | 11.0 | 14.0 | 0.00 | 0.00 | 0.00 | 94 | 1011.3 |
| 20260505064714 | 53 | 215 | 10.0 | 15.0 | 0.00 | 0.00 | 0.00 | 94 | 1011.3 |
| 20260505064212 | 53 | 207 | 15.0 | 24.0 | 0.00 | 0.00 | 0.00 | 94 | 1011.3 |
| 20260505063709 | 53 | 191 | 15.0 | 18.0 | 0.00 | 0.00 | 0.00 | 94 | 1011.1 |
| 20260505063205 | 53 | 198 | 17.0 | 23.0 | 0.00 | 0.00 | 0.00 | 94 | 1011.2 |
| 20260505062701 | 53 | 197 | 16.0 | 18.0 | 0.00 | 0.00 | 0.00 | 94 | 1011.2 |
| 20260505062159 | 53 | 219 | 15.0 | 19.0 | 0.00 | 0.00 | 0.00 | 94 | 1011.2 |
| 20260505061656 | 53 | 207 | 18.0 | 21.0 | 0.00 | 0.00 | 0.00 | 94 | 1011.4 |
| 20260505061154 | 53 | 188 | 14.0 | 23.0 | 0.00 | 0.00 | 0.00 | 94 | 1011.5 |
| 20260505060651 | 53 | 193 | 17.0 | 19.0 | 0.00 | 0.00 | 0.00 | 94 | 1011.4 |
| 20260505060148 | 53 | 193 | 15.0 | 21.0 | 0.00 | 0.00 | 0.00 | 94 | 1011.4 |
| 20260505055643 | 53 | 196 | 14.0 | 22.0 | 0.00 | 0.00 | 0.00 | 94 | 1011.5 |
| 20260505055140 | 53 | 196 | 13.0 | 19.0 | 0.00 | 0.00 | 0.00 | 94 | 1011.4 |
| 20260505054638 | 53 | 186 | 17.0 | 21.0 | 0.00 | 0.00 | 0.00 | 94 | 1011.6 |
| 20260505054135 | 53 | 200 | 15.0 | 21.0 | 0.00 | 0.00 | 0.00 | 94 | 1011.5 |
| 20260505053633 | 53 | 221 | 13.0 | 21.0 | 0.00 | 0.00 | 0.00 | 94 | 1011.7 |
| 20260505053129 | 53 | 214 | 13.0 | 23.0 | 0.00 | 0.00 | 0.00 | 93 | 1011.6 |
| 20260505052626 | 53 | 204 | 20.0 | 23.0 | 0.00 | 0.00 | 0.00 | 94 | 1011.6 |
| 20260505052124 | 53 | 189 | 17.0 | 22.0 | 0.00 | 0.00 | 0.00 | 93 | 1011.8 |
| 20260505051620 | 53 | 192 | 18.0 | 22.0 | 0.00 | 0.00 | 0.00 | 93 | 1011.8 |
| 20260505051118 | 53 | 198 | 12.0 | 18.0 | 0.00 | 0.00 | 0.00 | 93 | 1011.7 |
| 20260505050616 | 54 | 174 | 17.0 | 19.0 | 0.00 | 0.00 | 0.00 | 93 | 1011.8 |
| 20260505050114 | 54 | 201 | 16.0 | 19.0 | 0.00 | 0.00 | 0.00 | 93 | 1011.8 |
| 20260505041544 | 54 | 205 | 11.0 | 17.0 | 0.00 | 0.00 | 0.00 | 92 | 1012.2 |
| 20260505041041 | 54 | 194 | 9.0 | 14.0 | 0.00 | 0.00 | 0.00 | 92 | 1012.1 |
| 20260505040538 | 54 | 200 | 11.0 | 16.0 | 0.00 | 0.00 | 0.00 | 91 | 1012.0 |
| 20260505040035 | 54 | 212 | 10.0 | 16.0 | 0.00 | 0.00 | 0.00 | 91 | 1012.2 |
| 20260505035531 | 54 | 193 | 10.0 | 15.0 | 0.00 | 0.00 | 0.00 | 91 | 1012.3 |
| 20260505035028 | 54 | 207 | 12.0 | 15.0 | 0.00 | 0.00 | 0.00 | 91 | 1012.0 |
| 20260505034524 | 54 | 208 | 12.0 | 16.0 | 0.00 | 0.00 | 0.00 | 91 | 1012.1 |
| 20260505034022 | 54 | 204 | 15.0 | 18.0 | 0.00 | 0.00 | 0.00 | 91 | 1012.3 |
| 20260505033519 | 54 | 216 | 12.0 | 14.0 | 0.00 | 0.00 | 0.00 | 91 | 1012.2 |
| 20260505033017 | 54 | 188 | 10.0 | 16.0 | 0.00 | 0.00 | 0.00 | 91 | 1012.3 |
| 20260505032514 | 54 | 206 | 13.0 | 18.0 | 0.00 | 0.00 | 0.00 | 91 | 1012.2 |
| 20260505032010 | 54 | 212 | 14.0 | 17.0 | 0.00 | 0.00 | 0.00 | 91 | 1012.2 |
| 20260505031508 | 54 | 219 | 14.0 | 17.0 | 0.00 | 0.00 | 0.00 | 91 | 1012.2 |
| 20260505031004 | 54 | 202 | 15.0 | 18.0 | 0.00 | 0.00 | 0.00 | 91 | 1012.2 |
| 20260505030501 | 54 | 200 | 14.0 | 16.0 | 0.00 | 0.00 | 0.00 | 90 | 1012.2 |
| 20260505025955 | 54 | 205 | 15.0 | 18.0 | 0.00 | 0.00 | 0.00 | 90 | 1012.2 |
| 20260505025453 | 54 | 206 | 14.0 | 18.0 | 0.00 | 0.00 | 0.00 | 90 | 1012.4 |
| 20260505024952 | 54 | 216 | 16.0 | 18.0 | 0.00 | 0.00 | 0.00 | 90 | 1012.3 |
| 20260505024448 | 54 | 226 | 15.0 | 17.0 | 0.00 | 0.00 | 0.00 | 90 | 1012.3 |
| 20260505023946 | 54 | 209 | 13.0 | 16.0 | 0.00 | 0.00 | 0.00 | 90 | 1012.4 |
| 20260505023443 | 54 | 192 | 16.0 | 19.0 | 0.00 | 0.00 | 0.00 | 90 | 1012.4 |
| 20260505022940 | 54 | 198 | 15.0 | 19.0 | 0.00 | 0.00 | 0.00 | 91 | 1012.3 |
| 20260505022438 | 54 | 193 | 16.0 | 18.0 | 0.00 | 0.00 | 0.00 | 91 | 1012.4 |
| 20260505021935 | 54 | 205 | 15.0 | 18.0 | 0.00 | 0.00 | 0.00 | 91 | 1012.4 |
| 20260505021431 | 54 | 208 | 15.0 | 18.0 | 0.00 | 0.00 | 0.00 | 91 | 1012.4 |
| 20260505020926 | 54 | 214 | 15.0 | 18.0 | 0.00 | 0.00 | 0.00 | 91 | 1012.4 |
| 20260505020422 | 54 | 206 | 16.0 | 19.0 | 0.00 | 0.00 | 0.00 | 91 | 1012.3 |
| 20260505015919 | 54 | 203 | 16.0 | 21.0 | 0.00 | 0.00 | 0.00 | 91 | 1012.4 |
| 20260505015416 | 54 | 198 | 16.0 | 22.0 | 0.00 | 0.00 | 0.00 | 91 | 1012.4 |
| 20260505014914 | 54 | 206 | 20.0 | 23.0 | 0.00 | 0.00 | 0.00 | 91 | 1012.2 |
| 20260505014410 | 54 | 199 | 16.0 | 21.0 | 0.00 | 0.00 | 0.00 | 91 | 1012.4 |
| 20260505013907 | 54 | 212 | 18.0 | 19.0 | 0.00 | 0.00 | 0.00 | 91 | 1012.2 |
| 20260505013404 | 54 | 195 | 16.0 | 22.0 | 0.00 | 0.00 | 0.00 | 91 | 1012.4 |
| 20260505012902 | 54 | 199 | 18.0 | 22.0 | 0.00 | 0.00 | 0.00 | 91 | 1012.2 |
| 20260505012400 | 53 | 215 | 16.0 | 18.0 | 0.00 | 0.00 | 0.00 | 91 | 1012.1 |
| 20260505011856 | 54 | 200 | 18.0 | 22.0 | 0.00 | 0.00 | 0.00 | 91 | 1012.1 |
| 20260505011353 | 54 | 212 | 17.0 | 22.0 | 0.00 | 0.00 | 0.00 | 90 | 1012.1 |
| 20260505010849 | 54 | 216 | 19.0 | 23.0 | 0.00 | 0.00 | 0.00 | 90 | 1011.9 |
| 20260505010345 | 54 | 207 | 19.0 | 25.0 | 0.00 | 0.00 | 0.00 | 90 | 1011.7 |
| 20260505005841 | 54 | 207 | 19.0 | 26.0 | 0.00 | 0.00 | 0.00 | 90 | 1011.8 |
| 20260505005338 | 54 | 206 | 19.0 | 24.0 | 0.00 | 0.00 | 0.00 | 89 | 1011.8 |
| 20260505004836 | 54 | 201 | 22.0 | 26.0 | 0.00 | 0.00 | 0.00 | 89 | 1011.8 |